Other Public Products
Issued by NWS Charleston, SC

Current Version | Previous Version | Graphics & Text | Print | Product List | Glossary On
Versions: 1 2 3 4 5 6 7 8 9 10 11 12 13 14 15 16 17 18 19 20 21 22 23 24 25 26 27 28 29 30 31 32 33 34 35 36 37 38 39 40 41 42 43 44 45 46 47 48 49 50
000
FPUS82 KCHS 220412
OPUCHS

TEST...KCHS/KSAV Gateway Observations...TEST
National Weather Service Charleston SC
1100 PM EST SAT JAN 21 2017

NOTE: "fair" indicates few or no clouds below 12,000 feet with no
significant weather and/or obstructions to visibility.

SCZ050-WAZ558-NCZ071-TXZ119-213-PAZ071-DCZ001-FLZ074-172-MI076-
NYZ176-178-MAZ016-IL014-TNZ027-NJZ106-GAZ044-MD014-220500-
...Gateway Observations for Charleston International...

CITY           SKY/WX    TMP DP  RH WIND       PRES   REMARKS
Chas Airport   MOCLDY    57  56  96 S6        29.72S
Seattle        CLOUDY    44  43  96 S3        29.57R
Charlotte      CLOUDY    55  54  96 N6        29.68R FOG
Dallas DFW     CLOUDY    60  43  53 SW14G23   29.42S
Dallas Love    CLOUDY    62  43  49 S7        29.45F
Philladelphia  DRZL/FOG  45  44  97 CALM      29.81F VSB 3/4
Wash National  CLOUDY    48  48 100 NE6       29.78F
Baltimore      FOG       45  45 100 CALM      29.79S VSB 3/4
Miami          PTCLDY    74  66  76 S5        29.89S
Detroit        CLOUDY    42  42 100 CALM      29.63S FOG
Newark         CLOUDY    45  44  97 SW7       29.81S FOG
Laguardia      FOG       47  44  90 SW8       29.80S VSB 1
J F K          FOG       45  45 100 SW8       29.82R VSB 1/8
Boston Logan   CLEAR     46  41  82 SW5       29.75F
Ft. Lauderdale CLOUDY    71  63  75 S6        29.88S
Chicago O`Hare FOG       41  41 100 NW5       29.58R VSB 1/8
Chicago Midway MOCLDY    46  40  79 W3        29.59R
Houston Bush   CLOUDY    66  56  70 W6        29.52R
Houston Hobby  MOCLDY    67  61  81 S3        29.48S
Nashville      MOCLDY    59  50  72 S5        29.62S
Atlanta        MOCLDY    57  56  96 E3        29.66F

$$

GAZ044-118-TXZ119-213-NCZ071-DCZ001-MDZ014-506-PAZ021-071-NJZ106-
NYZ176-178-MAZ106-OHZ011-021-055-MIZ076-KYZ091-ILZ014-INZ047-
MNZ060-220500-
...Gateway Observations for Savannah International...

CITY           SKY/WX    TMP DP  RH WIND       PRES   REMARKS
Savannah Arpt  MOCLDY    60  58  92 CALM      29.72F
Atlanta        MOCLDY    57  56  96 E3        29.66F
Charlotte      CLOUDY    55  54  96 N6        29.68R FOG
Dallas DFW     CLOUDY    60  43  53 SW14G23   29.42S
Houston Bush   CLOUDY    66  56  70 W6        29.52R
Wash National  CLOUDY    48  48 100 NE6       29.78F
Wash Dulles    FOG       48  47  96 CALM      29.78S VSB 1/8
Baltimore      FOG       45  45 100 CALM      29.79S VSB 3/4
Philadelphia   DRZL/FOG  45  44  97 CALM      29.81F VSB 3/4
Newark         CLOUDY    45  44  97 SW7       29.81S FOG
Laguardia      FOG       47  44  90 SW8       29.80S VSB 1
J F K          FOG       45  45 100 SW8       29.82R VSB 1/8
Boston         CLEAR     46  41  82 SW5       29.75F
Pittsburg      LGT RAIN  54  52  93 CALM      29.70S
Akron          RAIN      54  51  90 S8        29.68S FOG
Cleveland      CLOUDY    56  50  80 S8        29.68R
Cincinnati     MOCLDY    56  53  90 CALM      29.65R
Columbus       LGT RAIN  54  52  92 S8        29.68R
Detroit        CLOUDY    42  42 100 CALM      29.63S FOG
Chicago O`Hare FOG       41  41 100 NW5       29.58R VSB 1/8
Minneapolis    DRZL/FOG  37  35  92 CALM      29.53R VSB 1/2
Indianapolis   CLOUDY    54  49  83 SE8       29.61S

$$




USA.gov is the U.S. government's official web portal to all federal, state and local government web resources and services.